This is the latest recevied weather packets stored in our database for station/object KY4OP-13. If no packets are shown the sender has not sent any weather packets the latest 10 day(s).
| Time | Temp. | Humidity | Pressure | Rain* | Wind** | Luminosity | Snow |
|---|---|---|---|---|---|---|---|
| 1777292628 | 7.78° C | 99% | 1026.8 hPa | 0 mm | - | - | - |
| 1777292324 | 7.78° C | 99% | 1026.7 hPa | 0 mm | - | - | - |
| 1777292020 | 7.22° C | 99% | 1026.9 hPa | 0 mm | - | - | - |
| 1777291717 | 7.22° C | 99% | 1026.8 hPa | 0 mm | - | - | - |
| 1777291414 | 6.67° C | 99% | 1026.9 hPa | 0 mm | - | - | - |
| 1777291111 | 6.67° C | 99% | 1026.7 hPa | 0 mm | - | - | - |
| 1777290807 | 6.11° C | 98% | 1026.8 hPa | 0 mm | - | - | - |
| 1777290505 | 6.11° C | 98% | 1026.8 hPa | 0 mm | - | - | - |
| 1777290200 | 6.11° C | 98% | 1026.6 hPa | 0 mm | - | - | - |
| 1777289897 | 5.56° C | 98% | 1026.4 hPa | 0 mm | - | - | - |
| 1777289593 | 5.56° C | 98% | 1026.3 hPa | 0 mm | - | - | - |
| 1777289289 | 5.56° C | 98% | 1026.2 hPa | 0 mm | - | - | - |
| 1777288986 | 5° C | 98% | 1026 hPa | 0 mm | - | - | - |
| 1777288682 | 5° C | 98% | 1026.1 hPa | 0 mm | - | - | - |
| 1777288379 | 4.44° C | 98% | 1026 hPa | 0 mm | - | - | - |
| 1777288076 | 4.44° C | 98% | 1026 hPa | 0 mm | - | - | - |
| 1777287772 | 4.44° C | 98% | 1025.7 hPa | 0 mm | - | - | - |
| 1777287469 | 4.44° C | 98% | 1025.6 hPa | 0 mm | - | - | - |
| 1777287164 | 3.89° C | 98% | 1025.7 hPa | 0 mm | - | - | - |
| 1777286861 | 3.89° C | 98% | 1025.4 hPa | 0 mm | - | - | - |
| 1777286559 | 3.33° C | 98% | 1025.5 hPa | 0 mm | - | - | - |
| 1777286257 | 3.33° C | 98% | 1025.3 hPa | 0 mm | - | - | - |
| 1777285953 | 3.89° C | 98% | 1025.4 hPa | 0 mm | - | - | - |
| 1777285650 | 3.89° C | 98% | 1025.3 hPa | 0 mm | - | - | - |
| 1777285348 | 3.33° C | 98% | 1025.1 hPa | 0 mm | - | - | - |
* Rain latest hour (hover to see other rain measurements)
** Current wind speed in m/s (hover to see current wind gust speed)